This demonstration page uses our WeatherBlox Daily Observations layout. Learn more.

Left ArrowRight Arrow

Hourly Observations for March 31, 2020

Temp ( °F °C ) Dew Point ( °F °C ) Humidity (%) Winds ( mph kmh ) Pressure ( in mb ) Visibility ( mi km ) Precip ( " mm )
12:53 am 00:53 Cloudy 53 11.7 49 9.4 86 86 S 7 11 30.18 1022 10 16 0.02 0.51
1:53 am 01:53 Cloudy with Light Rain 54 12.2 49 9.4 83 83 SSW 6 9 30.19 1022 10 16 0.00 0.00
2:53 am 02:53 Cloudy with Light Rain 53 11.7 48 8.9 83 83 S 6 9 30.18 1022 10 16 0.00 0.00
3:53 am 03:53 Cloudy 53 11.7 48 8.9 83 83 SW 6 9 30.17 1022 10 16 0.00 0.00
4:53 am 04:53 Cloudy 52 11.1 48 8.9 86 86 SSW 6 9 30.14 1021 10 16 0.00 0.00
5:53 am 05:53 Cloudy 52 11.1 47 8.3 83 83 SSW 8 13 30.13 1020 10 16 0.00 0.00
6:53 am 06:53 Cloudy with Light Rain 52 11.1 47 8.3 83 83 SSW 6 9 30.14 1021 10 16 0.00 0.00
7:53 am 07:53 Cloudy 52 11.1 47 8.3 83 83 SW 7 11 30.14 1021 10 16 0.01 0.25
8:53 am 08:53 Cloudy 53 11.7 47 8.3 80 80 SSW 12 19 30.14 1021 10 16 0.00 0.00
9:53 am 09:53 Cloudy 56 13.3 48 8.9 75 75 SSW 14 22 30.14 1021 10 16 0.00 0.00
10:53 am 10:53 Cloudy 59 15 49 9.4 69 69 S 15 24 30.13 1020 10 16 0.00 0.00
11:53 am 11:53 Sunny 62 16.7 49 9.4 62 62 S 17 28 30.11 1020 10 16 0.00 0.00
12:53 pm 12:53 Mostly Sunny 65 18.3 49 9.4 56 56 S 15 24 30.07 1018 10 16 0.00 0.00
1:53 pm 13:53 Mostly Cloudy 66 18.9 50 10 56 56 S 15 24 30.05 1018 10 16 0.00 0.00
2:53 pm 14:53 Cloudy with Light Rain 66 18.9 49 9.4 54 54 SSW 9 15 30.03 1017 10 16 0.00 0.00
3:53 pm 15:53 Mostly Cloudy 67 19.4 47 8.3 49 49 SW 9 15 30.00 1016 10 16 0.00 0.00
4:53 pm 16:53 Partly Cloudy 68 20 46 7.8 45 45 SSW 7 11 29.98 1015 10 16 0.00 0.00
5:53 pm 17:53 Sunny 69 20.6 42 5.6 38 38 NW 6 9 29.97 1015 10 16 0.00 0.00
6:53 pm 18:53 Partly Cloudy 65 18.3 40 4.4 40 40 WNW 9 15 29.96 1015 10 16 0.00 0.00
7:53 pm 19:53 Clear 60 15.6 37 2.8 42 42 W 8 13 29.96 1015 10 16 0.00 0.00
8:53 pm 20:53 Clear 57 13.9 34 1.1 42 42 VRB 5 7 29.98 1015 10 16 0.00 0.00
9:53 pm 21:53 Clear 56 13.3 33 0.6 42 42 WNW 6 9 29.98 1015 10 16 0.00 0.00
10:53 pm 22:53 Clear 51 10.6 34 1.1 52 52 Calm 29.98 1015 10 16 0.00 0.00
11:53 pm 23:53 Clear 51 10.6 31 -0.6 46 46 W 7 11 29.98 1015 10 16 0.00 0.00

Powered by AerisWeather